Regional Weather Roundup
Issued by NWS

Home | Current Version | Previous Version | Text Only | Print | Product List | Glossary Off
Versions: 1 2 3 4 5 6 7 8 9 10 11 12 13 14 15 16 17 18 19 20 21 22 23 24 25 26 27

000
ASUS45 KTFX 220110
RWRMT
MONTANA REGIONAL WEATHER ROUNDUP
NATIONAL WEATHER SERVICE GREAT FALLS MT
600 PM MST WED FEB 21 2018

NOTE: "FAIR" INDICATES FEW OR NO CLOUDS BELOW 12000 FEET WITH NO
SIGNIFICANT WEATHER AND/OR OBSTRUCTIONS TO VISIBILITY.

MTZ001>007-043-220200-
WEST OF THE DIVIDE

CITY           SKY/WX    TMP DP  RH WIND       PRES   REMARKS
KALISPELL      FAIR      13   6  74 CALM      30.10F
MISSOULA       CLOUDY    18   6  59 CALM      30.09F
BUTTE          FAIR      16   0  49 W3        29.93F
MULLAN PASS    CLOUDY     7   2  80 SW6       29.88F WCI  -3
ANACONDA         N/A      9  -2  61 CALM      29.99S
DEER LODGE       N/A      7  -2  66 CALM      30.02S
HAMILTON         N/A     16   7  67 MISG      30.05S
RONAN            N/A      7   1  78 SW3       30.12F
$$

MTZ008-052>055-220200-
SOUTHWEST MONTANA

CITY           SKY/WX    TMP DP  RH WIND       PRES   REMARKS
BOZEMAN        FAIR       9  -1  64 CALM      30.01S
DILLON         CLOUDY    10   5  80 SE5       29.95F
ENNIS          CLOUDY    18   5  57 S18       29.99S WCI   2
W YELLOWSTONE  LGT SNOW  10   7  85 SW6       29.93F WCI   1
THREE FORKS      N/A      9  -1  63 CALM      30.00F
TWIN BRIDGES     N/A     18   1  47 CALM      29.97
$$

MTZ009-010-012-014-046-048-049-054-220200-
EAST SLOPES AND CENTRAL MONTANA

CITY           SKY/WX    TMP DP  RH WIND       PRES   REMARKS
CUT BANK       FAIR      10   1  67 W25       29.91R WCI -11
GREAT FALLS    FAIR      10  -1  61 SW13      29.97S WCI  -5
MALMSTROM AFB  FAIR      11   3  70 SW14      29.99S WCI  -5
HELENA         FAIR      10   0  63 CALM      30.02F
AUGUSTA        FAIR       9  -4  57 SW16      29.91S WCI  -9
BOWMANS CRNR   FAIR      12  -1  55 SW17      29.92S WCI  -5
CHOTEAU          N/A     12  -2  52 S9        29.95S WCI   0
CONRAD           N/A     -6 -15  65 S2        29.97
FAIRFIELD      FAIR      13  -1  54 S13       29.94S WCI  -2
POWER          FAIR       6  -3  67 SW10      29.95S WCI  -9
RAYNESFORD     FAIR      17  -1  44 W12       29.96F WCI   5
ULM            FAIR      14   2  59 SW14      29.98S WCI   0
WHITE SULPHUR    N/A     12   0  57 S14       29.93S WCI  -3
$$

MTZ011-013-016-021-045-047-050-051-220200-
NORTH CENTRAL MONTANA

CITY           SKY/WX    TMP DP  RH WIND       PRES   REMARKS
HAVRE          FAIR      -8 -14  74 E10       30.07F WCI -26
LEWISTOWN      FAIR      11   1  64 SW17      29.97S WCI  -6
N BAR RANCH    FAIR      14  -4  44 SW8       29.98S WCI   3
CHINOOK          N/A     -8 -15  71 E6        30.11F WCI -21
GEYSER         FAIR      13  -3  50 S10       29.96R WCI   0
STANFORD       FAIR       7  -2  67 CALM      29.95S
WINIFRED       FAIR       1  -6  75 SE8       30.00R WCI -14
$$

MTZ017>020-022>027-061-062-220200-
NORTHEAST MONTANA

CITY           SKY/WX    TMP DP  RH WIND       PRES   REMARKS
GLASGOW        FAIR      -7 -12  79 E10       30.17S WCI -25
GLENDIVE       FAIR       6  -3  66 S7        30.21S WCI  -6
JORDAN           N/A      2  -7  66 SE3       30.13F
MALTA          CLEAR    -15 -20  76 E5        30.15S
SIDNEY         FAIR       4  -6  63 S9        30.25S WCI -10
WOLF POINT     FAIR      -2  -9  72 N5        30.22F
PLENTYWOOD       N/A      3  -4  72 CALM      30.20R
POPLAR           N/A      3  -6  66 CALM      30.23S
$$

MTZ028>42-056>058-220200-
SOUTHCENTRAL AND SOUTHEAST MONTANA

CITY           SKY/WX    TMP DP  RH WIND       PRES   REMARKS
BAKER          FAIR       0  -7  72 SE16      30.19F WCI -20
BILLINGS       FAIR      16   0  49 SW16      30.06S WCI   1
LIVINGSTON     CLOUDY    21  12  68 W13       29.97S WCI   9
MILES CITY     FAIR      -8 -13  78 N6        30.17F WCI -21
BIG TIMBER     PTCLDY    12   1  62 SE5       30.02R
FORSYTH          N/A     -4  -9  77 E7        30.14F WCI -18
HARLOWTON      FAIR       7  -1  71 E5        29.99S
LAUREL           N/A     16  -2  45 SW16G24   30.08R WCI   0
$$

REGIONAL REPORTS...DAKOTAS

CITY           SKY/WX    TMP DP  RH WIND       PRES   REMARKS
WILLISTON      FAIR      11   0  61 SE7       30.25F WCI   0
MINOT          MOCLDY     8   0  69 SE6       30.35R WCI  -2
DICKINSON      FAIR       4  -8  57 SE12      30.23S WCI -12
BEACH          FAIR       5  -6  61 SE20      30.22F WCI -15
CROSBY         FAIR       3  -4  72 S12       30.25S WCI -13
TIOGA          FAIR       5   0  78 S13       30.26R WCI -12
WATFORD CITY   FAIR       9  -4  56 S7        30.26S WCI  -3
BISMARCK       FAIR       8  -3  61 SE6       30.39F WCI  -2
GRAND FORKS    FAIR       2  -4  76 SW7       30.52S WCI -11
FARGO          FAIR       9   2  73 MISG      30.54R
BUFFALO SD       N/A      0  -8  69 S5        30.15S
RAPID CITY     FAIR      10   1  67 S10       30.20S WCI  -4
$$

REGIONAL REPORTS...WYOMING/IDAHO/WASHINGTON

CITY           SKY/WX    TMP DP  RH WIND       PRES   REMARKS
GILLETTE       FAIR      11  -1  58 S5        30.07F
SHERIDAN       FAIR      -2  -9  72 SW6       30.07F WCI -14
BUFFALO WY     FAIR       9  -1  64 CALM      30.01F
YELLOWSTONE LA   N/A      6  -1  73 CALM      29.93S
IDAHO FALLS    FAIR      25   4  40 SW10G17   30.05F WCI  15
SALMON         CLOUDY    23  11  60 CALM      30.03F
BOISE          CLOUDY    33  15  47 NW9       30.08F WCI  25
SPOKANE        CLOUDY    21   9  59 SE6       30.13F WCI  13
$$

REGIONAL REPORTS...ALBERTA

CITY           SKY/WX    TMP DP  RH WIND       PRES   REMARKS
$$

REGIONAL REPORTS...SASKATCHEWAN

CITY           SKY/WX    TMP DP  RH WIND       PRES   REMARKS
$$




USA.gov is the U.S. government's official web portal to all federal, state and local government web resources and services.